#timestamp,LO_Frequency,Hit,StdDev 
1581764415.3,286046992.5,N
1581764435.1,286046994.5,N
1581764455.9,286046995.4,N
1581764475.7,286046995.5,N
1581764495.5,286046997.3,N
1581764515.4,286046999.2,N
1581764535.2,286047000.7,N
1581764555.1,286047002.2,N
1581764556.0,286047002.2,N
1581764575.8,286046999.8,N
1581764595.6,286046998.5,N
1581764615.5,286046996.6,N
1581764635.3,286046996.0,N
1581764655.1,286046990.6,N
1581764675.9,286046991.6,N
1581764695.7,286046991.0,N
1581764715.6,286046992.2,N
1581764735.4,286046996.4,N
1581764755.2,286046995.0,N
1581764775.1,286046997.2,N
1581764776.0,286046997.2,N
1581764795.8,286046996.8,N
1581764815.7,286046998.6,N
1581764835.5,286047001.0,N
1581764855.3,286047000.3,N
1581764875.2,286046999.6,N
1581764895.0,286046995.0,N
1581764895.9,286046995.0,N
1581764915.7,286046993.3,N
1581764935.6,286046994.4,N
1581764955.4,286046990.5,N
1581764975.3,286046991.2,N
1581764995.1,286046990.7,N
1581764996.0,286046990.7,N
1581765015.8,286046990.2,N
1581765035.7,286046991.9,N
1581765055.5,286046994.1,N
1581765075.4,286046993.4,N
1581765095.2,286046997.8,N
1581765115.0,286046996.7,N
1581765115.9,286046996.7,N
1581765135.8,286046998.9,N
1581765155.6,286046999.9,N
1581765175.4,286047000.4,N
1581765195.3,286046999.5,N
1581765215.1,286046996.0,N
1581765235.9,286046993.1,N
1581765255.7,286046992.8,N
1581765275.5,286046991.0,N
1581765295.4,286046989.0,Y
1581765315.2,286046995.7,P
1581765335.0,286046995.7,P
1581765336.0,286046995.7,P
1581765355.8,286046995.3,Y
1581765375.6,286046999.7,P
1581765395.5,286047001.7,N
1581765415.3,286047001.7,N
1581765435.1,286047007.0,N
1581765455.9,286047007.3,N
1581765475.7,286047008.2,N
1581765495.6,286047006.8,N
1581765515.4,286047005.9,N
1581765535.2,286047001.5,N
1581765555.1,286047002.8,N
1581765556.0,286047002.8,N
1581765575.8,286046998.5,N
1581765595.6,286046996.5,N
1581765615.5,286047000.4,N
1581765635.3,286046999.8,N
1581765655.2,286047000.2,N
1581765675.9,286047002.0,N
1581765695.7,286047004.4,N
1581765715.6,286047005.9,N
1581765735.4,286047009.0,N
1581765755.3,286047009.0,N
1581765775.1,286047008.6,N
1581765776.0,286047008.6,N
1581765795.8,286047004.9,N
1581765815.7,286047004.2,N
1581765835.5,286047002.2,N
1581765855.3,286046998.5,N
1581765875.2,286046996.7,N
1581765895.0,286047000.5,N
1581765895.9,286047000.5,N
1581765915.8,286047002.6,N
1581765935.6,286047002.5,N
1581765955.4,286047004.1,N
1581765975.3,286047004.9,N
1581765995.1,286047006.8,N
1581766015.9,286047009.2,N
1581766035.7,286047006.7,N
1581766055.5,286047003.0,N
1581766075.4,286047004.3,N
1581766095.2,286047000.1,N
1581766115.0,286046999.1,N
1581766115.9,286046999.1,N
1581766135.8,286046997.6,N
1581766155.6,286046998.2,N
1581766175.5,286047000.9,N
1581766195.3,286047000.2,N
1581766215.1,286047002.7,N
1581766235.9,286047001.9,N
1581766255.7,286047004.1,N
1581766275.6,286047003.6,N
1581766295.4,286047004.9,N
1581766315.2,286047007.3,N
1581766335.1,286047003.2,N
1581766336.0,286047003.2,N
1581766355.8,286047002.5,N
1581766375.7,286046998.4,N
1581766395.5,286046995.0,N
1581766415.3,286046995.9,N
1581766435.2,286046997.9,N
1581766455.0,286046996.9,N
1581766455.9,286046996.9,N
1581766475.7,286046996.9,N
1581766495.6,286046998.3,N
1581766515.4,286047000.6,N
1581766535.3,286047001.9,N
1581766555.1,286047002.1,N
1581766556.0,286047002.1,N
1581766575.8,286047003.0,N
1581766595.7,286047005.2,N
1581766615.5,286047004.1,N
1581766635.3,286047000.2,N
1581766655.2,286046999.2,N
1581766675.0,286046999.1,N
1581766675.9,286046999.1,N
1581766695.8,286046995.4,N
1581766715.6,286046995.0,N
1581766735.4,286046997.2,N
1581766755.3,286046998.9,N
1581766775.1,286047001.2,N
1581766795.9,286047002.3,N
1581766815.7,286047001.7,N
1581766835.5,286047002.9,N
1581766855.4,286047007.6,N
1581766875.2,286047004.8,N
1581766895.0,286047004.7,N
1581766895.9,286047004.7,N
1581766915.8,286047003.4,N
1581766935.6,286047002.0,N
1581766955.5,286046999.4,N
1581766975.3,286046999.2,N
1581766995.1,286046997.3,N
1581767015.9,286046997.2,N
1581767035.7,286046999.3,N
1581767055.5,286046998.6,N
1581767075.4,286046998.7,N
1581767095.2,286046999.9,N
1581767115.1,286047002.2,N
1581767116.0,286047002.2,N
1581767135.8,286047003.7,N
1581767155.6,286047003.3,N
1581767175.5,286047002.0,N
1581767195.3,286047000.0,N
1581767215.2,286046999.6,N
1581767235.9,286046997.2,N
1581767255.7,286046996.0,N
1581767275.6,286046994.1,N
1581767295.4,286046996.1,N
1581767315.2,286046995.6,N
1581767335.1,286046996.6,N
1581767336.0,286046996.6,N
1581767355.8,286046998.8,N
1581767375.7,286046999.7,N
1581767395.5,286046999.9,N
1581767415.3,286047000.5,N
1581767435.2,286046998.1,N
1581767455.0,286046998.2,N
1581767455.9,286046998.2,N
1581767475.8,286046998.1,N
1581767495.6,286046997.0,N
1581767515.4,286046995.7,N
1581767535.3,286046995.7,N
1581767555.1,286046995.8,N
1581767575.8,286046993.3,N
1581767595.7,286046995.4,N
1581767615.5,286046994.9,N
1581767635.4,286046999.6,N
1581767655.2,286046999.4,N
1581767675.0,286047000.6,N
1581767675.9,286047000.6,N
1581767695.8,286046999.9,N
1581767715.6,286047001.0,N
1581767735.5,286046998.9,N
1581767755.3,286046998.0,N
1581767775.1,286046994.0,N
1581767795.9,286046992.4,Y
1581767815.7,286046997.4,P
1581767835.5,286046996.7,P
1581767855.4,286046996.9,P
1581767875.2,286046999.1,N
1581767895.1,286046999.9,N
1581767896.0,286046999.9,N
1581767915.8,286047003.5,N
1581767935.6,286047003.8,N
1581767955.5,286047005.8,N
1581767975.3,286047001.5,N
1581767995.1,286046998.3,N
